Location: Newark
(49.4900°N, 20.6656°E)
Time: 15:18:47
(UTC+00:00)

STARLINK-1764 - Pass Details

Date: 24 September 2020
Orbit: 378 x 381 km, 53.0° (Epoch: 24 October)

Event Time Altitude Azimuth Distance (km) Brightness Sun altitude
Exits shadow 01:44:33 23° 54° (NE) 877 5.4 -25.8°
Drops below altitude 10° 01:45:57 10° 67° (ENE) 1,396 6.7 -25.6°
Enters shadow 02:41:37 -70° 272° (W) 12,347 10.4 -17.6°
Maximum altitude 03:19:04 52° 13° (NNE) 479 3.5 -11.8°
